Date,TemperatureHighF,TemperatureAvgF,TemperatureLowF,DewpointHighF,DewpointAvgF,DewpointLowF,HumidityHigh,HumidityAvg,HumidityLow,PressureMaxIn,PressureMinIn,WindSpeedMaxMPH,WindSpeedAvgMPH,GustSpeedMaxMPH,PrecipitationSumIn
2013-1-1,60.3,49.9,39.0,37.0,29.3,19.0,83,51,24,30.24,30.08,14,2,0,0.00
2013-1-2,67.6,56.2,42.4,30.0,23.2,17.0,58,30,20,30.12,30.01,21,4,0,0.00
2013-1-3,70.3,57.1,40.3,29.0,21.3,12.0,62,28,15,30.16,30.03,13,2,0,0.00
2013-1-4,66.3,55.0,41.7,28.0,20.6,11.0,55,29,16,30.26,30.15,15,1,0,0.00
2013-1-5,64.9,49.1,36.0,41.0,31.2,23.0,78,53,27,30.28,30.17,6,1,0,0.00
2013-1-6,56.2,49.4,42.5,48.0,41.6,37.0,89,75,57,30.20,30.01,15,1,0,0.03
2013-1-7,66.2,50.2,39.0,40.0,35.9,29.0,87,62,25,30.09,29.96,6,1,0,0.01
2013-1-8,70.6,53.6,38.7,50.0,39.1,30.0,81,60,36,30.10,30.01,6,0,0,0.00
2013-1-9,69.2,55.4,45.9,49.0,44.6,40.0,85,69,37,30.12,30.00,8,1,0,0.00
2013-1-10,58.2,51.1,40.4,48.0,37.4,24.0,86,62,28,30.07,29.88,14,3,0,0.02
2013-1-11,55.3,43.7,32.5,30.0,25.5,22.0,73,51,29,30.18,30.03,10,1,0,0.00
2013-1-12,56.1,43.2,30.4,30.0,24.3,17.0,74,51,22,30.15,30.07,10,1,0,0.00
2013-1-13,55.4,44.5,34.6,30.0,23.4,14.0,70,46,23,30.16,30.05,6,1,0,0.00
2013-1-14,53.9,46.3,39.3,15.0,8.1,4.0,29,21,15,30.32,30.14,14,4,0,0.00
2013-1-15,61.9,48.1,34.4,26.0,19.6,10.0,58,34,22,30.43,30.30,9,1,0,0.00
2013-1-16,71.1,54.5,37.5,37.0,28.7,23.0,61,41,20,30.35,30.08,19,2,0,0.00
2013-1-17,76.5,68.6,59.7,24.0,21.8,19.0,23,17,13,30.14,30.03,16,6,0,0.00
2013-1-18,78.2,69.5,64.3,28.0,23.1,20.0,19,17,14,30.11,30.02,12,3,0,0.00
2013-1-19,78.7,68.9,64.4,24.0,20.4,18.0,19,16,13,30.15,30.05,11,2,0,0.00
2013-1-20,79.7,69.2,62.3,25.0,18.8,15.0,20,15,10,30.11,29.97,15,2,0,0.00
2013-1-21,81.5,71.5,62.3,32.0,19.7,13.0,29,14,11,30.07,29.98,12,3,0,0.00
2013-1-22,80.7,63.5,49.2,34.0,23.2,14.0,33,23,11,30.07,29.98,9,1,0,0.00
2013-1-23,74.8,64.0,55.9,44.0,33.7,25.0,55,33,27,30.13,30.00,5,1,0,0.00
2013-1-24,65.2,58.1,52.3,55.0,51.5,44.0,88,79,57,30.20,30.09,7,1,0,0.65
2013-1-25,62.7,60.4,57.4,57.0,54.9,51.0,88,82,68,30.11,29.93,10,1,0,0.28
2013-1-26,64.0,59.4,56.6,60.0,56.1,54.0,92,89,83,29.98,29.87,7,1,0,0.19
2013-1-27,61.3,54.9,49.8,54.0,48.2,43.0,92,79,61,30.01,29.94,8,2,0,0.00
2013-1-28,60.6,48.7,39.3,43.0,36.8,28.0,89,67,30,30.17,30.00,7,1,0,0.01
2013-1-29,60.2,47.5,37.3,41.0,36.9,32.0,83,68,43,30.23,30.14,9,1,0,0.00
2013-1-30,69.6,52.9,40.7,45.0,40.2,37.0,86,65,35,30.33,30.20,4,0,0,0.00
2013-1-31,78.6,58.4,43.6,47.0,41.0,38.0,81,57,25,30.24,30.07,6,0,0,0.00
2013-2-1,76.0,59.4,47.9,47.0,42.7,38.0,70,56,32,30.16,30.08,6,1,0,0.00
2013-2-2,76.0,63.3,53.8,53.0,45.8,41.0,77,55,29,30.17,30.08,4,0,0,0.00
2013-2-3,75.5,63.8,50.4,52.0,46.7,43.0,79,56,35,30.12,29.97,10,1,0,0.00
2013-2-4,69.8,56.8,46.3,52.0,46.9,41.0,87,71,50,30.07,29.96,9,1,0,0.00
2013-2-5,57.2,52.9,49.1,49.0,47.6,46.0,90,83,73,30.09,29.97,6,1,0,0.00
2013-2-6,64.6,55.4,46.9,48.0,46.2,43.0,85,72,52,30.10,29.99,7,1,0,0.00
2013-2-7,62.3,51.7,43.4,50.0,45.1,40.0,89,79,63,30.13,29.98,12,2,0,0.00
2013-2-8,51.8,46.9,41.2,45.0,40.4,37.0,86,78,69,29.99,29.87,9,2,0,0.44
2013-2-9,57.0,45.3,35.9,43.0,36.7,33.0,90,74,46,30.11,29.93,7,1,0,0.00
2013-2-10,55.8,46.2,37.4,41.0,38.0,34.0,90,74,52,30.11,30.00,5,0,0,0.00
2013-2-11,62.7,49.1,38.3,41.0,33.6,24.0,88,62,23,30.23,30.05,13,1,0,0.01
2013-2-12,64.3,48.5,37.0,40.0,33.7,29.0,77,60,28,30.34,30.22,7,1,0,0.00
2013-2-13,68.3,51.5,37.7,42.0,36.8,32.0,80,60,32,30.26,30.12,5,1,0,0.00
2013-2-14,75.9,57.0,41.6,48.0,40.2,31.0,80,57,28,30.18,30.03,9,1,0,0.00
2013-2-15,80.7,70.3,57.1,34.0,29.1,22.0,37,22,16,30.16,30.09,14,2,0,0.00
2013-2-16,82.8,69.4,51.3,32.0,26.3,20.0,40,21,13,30.13,29.95,13,1,0,0.00
2013-2-17,69.9,54.4,42.8,47.0,38.2,26.0,85,56,28,30.02,29.90,13,2,0,0.00
2013-2-18,64.8,53.4,45.8,46.0,44.3,41.0,86,72,49,30.06,29.94,10,2,0,0.00
2013-2-19,54.8,50.2,43.5,46.0,41.5,37.0,88,72,62,29.98,29.70,13,2,0,0.37
2013-2-20,59.0,48.8,37.1,42.0,36.0,31.0,87,64,39,30.00,29.69,13,2,0,0.00
2013-2-21,61.3,50.0,40.9,42.0,37.5,31.0,81,65,34,30.09,29.95,6,0,0,0.00
2013-2-22,65.9,50.8,37.5,42.0,36.8,32.0,83,62,33,30.19,30.09,7,1,0,0.00
2013-2-23,65.1,51.2,39.8,44.0,38.3,33.0,82,64,34,30.15,29.91,12,2,0,0.00
2013-2-24,67.1,55.9,43.3,40.0,20.1,12.0,83,28,13,30.19,29.98,20,4,0,0.00
2013-2-25,69.0,52.7,39.6,38.0,28.1,20.0,68,42,18,30.21,30.06,11,2,0,0.00
2013-2-26,76.3,55.3,38.4,46.0,33.7,19.0,71,49,16,30.10,29.95,12,2,0,0.00
2013-2-27,75.4,65.1,57.6,27.0,20.7,15.0,27,18,15,30.24,30.10,11,2,0,0.00
2013-2-28,81.0,62.9,47.3,29.0,24.5,15.0,42,25,13,30.29,30.20,6,1,0,0.00
2013-3-1,86.5,68.2,49.3,35.0,29.9,23.0,45,26,14,30.28,30.11,15,2,0,0.00
2013-3-2,84.3,66.6,52.3,40.0,33.9,31.0,47,32,17,30.19,30.05,7,1,0,0.00
2013-3-3,73.7,60.3,49.8,50.0,41.8,32.0,83,53,30,30.09,29.95,13,2,0,0.00
2013-3-4,69.4,58.8,51.1,51.0,48.5,46.0,84,70,47,30.09,29.99,11,2,0,0.00
2013-3-5,64.4,55.3,48.9,52.0,48.5,45.0,87,78,62,30.11,30.00,13,3,0,0.00
2013-3-6,64.9,55.9,47.2,48.0,44.1,41.0,84,66,46,30.14,30.00,13,2,0,0.00
2013-3-7,60.1,54.2,49.2,50.0,45.9,42.0,89,74,54,30.00,29.84,10,1,0,0.08
2013-3-8,53.7,49.8,45.0,45.0,43.2,38.0,88,78,60,30.02,29.76,10,2,0,0.59
2013-3-9,63.5,54.1,45.7,47.0,43.7,40.0,87,70,49,30.21,30.01,12,1,0,0.00
2013-3-10,74.4,58.0,41.6,46.0,38.5,29.0,87,55,20,30.25,30.13,16,2,0,0.00
2013-3-11,77.4,59.1,44.7,45.0,40.1,35.0,74,53,29,30.17,30.02,9,1,0,0.00
2013-3-12,80.7,62.5,47.6,52.0,46.2,41.0,77,58,32,30.07,29.97,10,1,0,0.00
2013-3-13,86.5,66.7,52.8,56.0,49.6,43.0,77,57,32,30.08,29.99,10,1,0,0.00
2013-3-14,85.6,66.8,49.2,57.0,50.7,45.0,89,60,32,30.07,29.97,9,2,0,0.00
2013-3-15,78.7,62.4,51.3,56.0,51.7,48.0,90,70,45,30.02,29.91,12,2,0,0.00
2013-3-16,70.2,57.9,50.9,52.0,49.8,48.0,89,76,52,29.96,29.86,11,2,0,0.00
2013-3-17,71.3,58.9,52.3,53.0,50.0,48.0,86,74,51,29.98,29.90,8,2,0,0.00
2013-3-18,64.0,57.9,52.9,52.0,49.9,48.0,85,75,63,30.07,29.98,9,1,0,0.00
2013-3-19,70.3,57.2,48.0,53.0,49.3,44.0,92,76,52,30.11,30.02,7,1,0,0.00
2013-3-20,71.3,57.3,50.6,54.0,50.0,47.0,88,77,53,30.09,29.94,10,1,0,0.00
2013-3-21,71.9,62.6,49.8,54.0,50.6,46.0,86,66,49,29.93,29.79,11,2,0,0.00
2013-3-22,71.9,58.8,47.9,54.0,49.3,45.0,89,72,49,29.90,29.80,12,2,0,0.00
2013-3-23,73.8,58.5,44.5,53.0,48.0,41.0,88,70,45,30.00,29.89,12,2,0,0.00
2013-3-24,77.5,61.5,47.4,54.0,49.6,43.0,89,68,40,30.00,29.86,9,1,0,0.00
2013-3-25,78.0,61.7,47.8,54.0,49.3,44.0,86,67,40,29.96,29.86,9,2,0,0.00
2013-3-26,73.7,60.5,52.5,54.0,50.8,47.0,90,72,45,29.95,29.87,14,2,0,0.00
2013-3-27,71.8,59.9,52.8,53.0,50.2,48.0,84,72,48,30.03,29.91,14,2,0,0.00
2013-3-28,77.0,61.9,51.8,55.0,51.4,48.0,88,71,42,30.05,29.98,11,1,0,0.00
2013-3-29,76.4,61.7,52.8,57.0,52.6,48.0,89,74,49,30.10,30.01,11,2,0,0.00
2013-3-30,76.4,62.9,55.7,55.0,51.9,49.0,88,69,46,30.10,30.02,10,2,0,0.00
2013-3-31,71.0,60.6,53.9,56.0,52.2,49.0,85,75,57,30.11,30.03,13,2,0,0.00
2013-4-1,66.0,59.5,54.6,52.0,50.0,47.0,84,72,53,30.15,30.06,11,2,0,0.00
2013-4-2,73.1,61.2,51.9,54.0,50.9,47.0,85,70,47,30.09,29.95,11,2,0,0.00
2013-4-3,78.9,62.9,49.7,58.0,52.3,45.0,88,71,45,30.07,29.95,9,2,0,0.00
2013-4-4,75.8,62.9,55.8,55.0,53.3,52.0,86,72,46,30.08,29.98,10,2,0,0.00
2013-4-5,71.5,62.1,57.2,56.0,53.7,52.0,85,74,56,30.07,29.97,13,2,0,0.00
2013-4-6,71.7,63.8,57.0,55.0,52.4,50.0,83,68,53,30.06,29.94,13,2,0,0.00
2013-4-7,72.6,61.2,50.6,55.0,51.6,47.0,87,72,54,29.95,29.79,7,2,0,0.00
2013-4-8,68.3,59.1,52.5,52.0,44.7,36.0,86,62,35,29.80,29.63,16,4,0,0.00
2013-4-9,74.6,61.1,44.7,42.0,37.3,31.0,75,45,23,29.98,29.80,14,2,0,0.00
2013-4-10,82.4,64.1,45.4,47.0,36.5,30.0,68,41,16,30.07,29.96,14,2,0,0.00
2013-4-11,79.0,61.4,48.2,53.0,43.7,34.0,78,55,26,29.99,29.76,14,2,0,0.00
2013-4-12,76.3,62.4,55.7,56.0,51.6,49.0,83,69,46,29.88,29.75,12,2,0,0.00
2013-4-13,67.1,58.7,54.8,55.0,52.1,50.0,85,79,66,29.90,29.82,10,2,0,0.00
2013-4-14,62.1,57.1,53.7,51.0,49.1,47.0,83,75,64,29.87,29.80,12,1,0,0.00
2013-4-15,64.8,57.8,53.7,53.0,49.2,47.0,82,73,60,29.89,29.82,12,2,0,0.00
2013-4-16,65.2,56.1,48.8,48.0,42.4,38.0,82,62,41,29.97,29.85,13,2,0,0.00
2013-4-17,73.9,58.5,42.7,41.0,32.0,23.0,75,42,17,30.12,29.97,15,1,0,0.00
2013-4-18,80.2,65.5,46.5,31.0,26.1,20.0,55,25,13,30.19,30.07,16,2,0,0.00
2013-4-19,87.3,67.2,49.0,37.0,30.7,25.0,47,29,12,30.14,29.95,9,1,0,0.00
2013-4-20,86.0,67.7,48.5,53.0,42.9,34.0,64,43,25,29.98,29.85,11,1,0,0.00
2013-4-21,83.3,66.6,51.0,55.0,49.5,44.0,81,57,30,29.99,29.90,10,2,0,0.00
2013-4-22,76.8,62.4,53.0,55.0,51.7,49.0,85,70,42,29.99,29.87,12,2,0,0.00
2013-4-23,78.1,63.5,56.1,54.0,51.3,49.0,80,66,43,29.95,29.82,10,2,0,0.00
2013-4-24,62.2,59.0,56.4,54.0,51.3,48.0,84,76,66,29.96,29.88,9,2,0,0.00
2013-4-25,71.3,62.4,56.4,52.0,49.7,47.0,77,64,48,30.09,29.95,5,1,0,0.00
2013-4-26,79.1,64.0,49.0,54.0,50.1,45.0,85,63,41,30.13,30.06,7,1,0,0.00
2013-4-27,79.6,65.6,50.8,59.0,53.3,46.0,86,67,47,30.13,29.96,12,2,0,0.00
2013-4-28,80.9,65.5,56.2,59.0,55.2,52.0,87,72,46,30.00,29.83,9,2,0,0.00
2013-4-29,76.7,64.0,57.2,58.0,54.8,52.0,86,73,52,29.88,29.75,11,2,0,0.00
2013-4-30,71.5,61.9,57.2,56.0,52.9,51.0,81,73,56,29.88,29.79,12,2,0,0.00
2013-5-1,81.1,66.9,59.0,58.0,54.6,52.0,81,67,44,30.07,29.88,12,2,0,0.00
2013-5-2,92.2,76.7,52.9,54.0,30.8,20.0,87,28,8,30.08,29.95,26,4,0,0.00
2013-5-3,95.1,80.6,66.5,44.0,30.1,18.0,33,17,9,29.98,29.75,12,2,0,0.00
2013-5-4,76.7,64.6,53.9,57.0,49.4,34.0,75,59,35,29.83,29.70,16,3,0,0.00
2013-5-5,67.8,62.0,58.3,52.0,49.7,47.0,74,65,55,29.94,29.81,15,2,0,0.00
2013-5-6,66.3,60.2,55.7,56.0,52.9,50.0,88,77,64,30.01,29.89,12,1,0,0.42
2013-5-7,72.0,62.0,52.9,53.0,49.3,47.0,84,65,45,30.06,29.97,13,2,0,0.01
2013-5-8,71.4,63.3,57.5,54.0,50.7,46.0,82,65,49,30.08,30.03,11,2,0,0.00
2013-5-9,74.4,63.1,52.5,56.0,52.1,49.0,86,69,50,30.08,30.00,10,2,0,0.00
2013-5-10,81.5,67.4,54.3,60.0,56.1,50.0,88,69,47,30.06,29.97,11,2,0,0.00
2013-5-11,89.4,71.3,56.3,64.0,59.1,53.0,90,68,41,30.05,29.95,9,1,0,0.00
2013-5-12,94.1,76.6,58.2,64.0,57.8,53.0,87,56,28,30.03,29.87,12,1,0,0.00
2013-5-13,98.3,81.5,63.8,62.0,53.8,49.0,66,41,23,29.93,29.84,10,2,0,0.00
2013-5-14,84.5,70.5,59.9,59.0,54.3,50.0,79,59,32,29.97,29.87,15,3,0,0.00
2013-5-15,77.4,64.9,55.8,58.0,54.3,51.0,83,70,50,30.00,29.92,13,2,0,0.00
2013-5-16,76.1,64.7,58.2,57.0,54.4,52.0,81,70,49,29.96,29.86,11,2,0,0.00
2013-5-17,74.4,65.9,60.4,58.0,55.5,55.0,82,70,55,29.98,29.89,10,2,0,0.00
2013-5-18,75.8,66.6,60.2,57.0,55.2,53.0,83,68,52,30.01,29.94,9,2,0,0.00
2013-5-19,78.9,66.7,56.4,59.0,55.3,52.0,86,68,45,29.97,29.85,13,2,0,0.00
2013-5-20,87.1,69.4,55.6,63.0,57.3,52.0,87,67,43,29.92,29.84,9,2,0,0.00
2013-5-21,84.9,68.8,60.8,61.0,57.8,56.0,85,70,38,29.91,29.80,10,2,0,0.00
2013-5-22,76.8,66.5,61.2,58.0,55.5,52.0,80,68,53,29.83,29.74,13,2,0,0.00
2013-5-23,73.5,65.3,58.7,55.0,53.0,50.0,79,66,51,29.91,29.80,9,2,0,0.00
2013-5-24,74.8,65.2,58.0,57.0,52.1,48.0,77,64,51,29.97,29.89,11,2,0,0.00
2013-5-25,76.5,64.0,53.7,54.0,51.5,47.0,81,65,44,30.00,29.94,13,2,0,0.00
2013-5-26,74.8,63.8,53.0,56.0,52.7,49.0,86,69,51,30.02,29.96,10,2,0,0.00
2013-5-27,78.7,65.3,53.8,59.0,54.3,50.0,86,69,46,29.98,29.84,12,2,0,0.00
2013-5-28,75.9,66.4,59.5,59.0,56.3,54.0,83,71,55,29.87,29.72,11,2,0,0.00
2013-5-29,81.9,68.5,56.6,61.0,56.7,52.0,87,68,46,29.79,29.69,13,2,0,0.00
2013-5-30,82.4,68.6,57.1,62.0,57.9,53.0,87,70,49,29.86,29.74,12,2,0,0.00
2013-5-31,83.2,69.5,61.2,62.0,58.7,56.0,83,70,47,29.88,29.78,9,1,0,0.00
2013-6-1,88.8,71.4,62.5,66.0,60.8,58.0,85,71,46,29.84,29.72,17,2,0,0.00
2013-6-2,76.9,67.4,61.3,63.0,59.1,56.0,86,75,59,29.81,29.74,12,2,0,0.00
2013-6-3,78.5,67.2,61.7,61.0,57.0,55.0,81,71,53,29.87,29.78,15,2,0,0.00
2013-6-4,78.0,66.3,60.6,59.0,56.6,55.0,85,72,50,29.95,29.86,7,1,0,0.00
2013-6-5,79.8,67.7,60.5,59.0,56.4,55.0,81,69,47,29.98,29.87,12,1,0,0.00
2013-6-6,77.5,66.3,57.3,61.0,56.7,53.0,85,72,54,29.92,29.84,9,2,0,0.00
2013-6-7,78.8,66.4,60.7,61.0,57.2,55.0,83,73,53,29.89,29.75,11,2,0,0.00
2013-6-8,77.2,67.2,61.8,62.0,57.9,56.0,83,73,58,29.88,29.77,11,2,0,0.00
2013-6-9,79.4,66.7,60.0,62.0,57.3,54.0,82,73,54,29.91,29.84,12,2,0,0.00
2013-6-10,79.7,68.0,60.2,59.0,56.0,54.0,82,67,47,29.93,29.87,12,2,0,0.00
2013-6-11,87.2,70.9,57.1,64.0,58.0,53.0,86,66,43,29.91,29.84,11,2,0,0.00
2013-6-12,76.3,67.3,63.5,61.0,58.8,57.0,83,75,59,30.00,29.89,12,2,0,0.00
2013-6-13,81.8,69.4,62.0,61.0,58.3,56.0,81,69,49,29.98,29.86,9,2,0,0.00
2013-6-14,80.6,66.8,58.0,61.0,56.8,53.0,87,72,50,29.90,29.81,11,2,0,0.00
2013-6-15,78.5,66.3,59.3,58.0,55.6,54.0,81,70,48,29.96,29.87,10,2,0,0.00
2013-6-16,81.3,68.6,58.9,59.0,56.2,53.0,84,67,45,30.01,29.91,11,2,0,0.00
2013-6-17,83.6,69.0,56.8,61.0,57.3,53.0,87,68,44,29.96,29.86,11,2,0,0.00
2013-6-18,81.9,69.1,59.0,62.0,58.6,54.0,90,71,49,29.89,29.80,9,2,0,0.00
2013-6-19,80.7,70.2,61.4,61.0,57.2,53.0,83,65,44,29.85,29.77,11,2,0,0.00
2013-6-20,82.5,69.2,56.7,59.0,53.7,-99.9,85,62,40,29.84,29.77,12,2,0,0.00
2013-6-21,83.3,70.3,58.2,59.0,55.1,52.0,85,61,39,29.87,29.80,11,2,0,0.00
2013-6-22,81.5,69.6,59.0,60.0,56.9,55.0,86,66,43,29.88,29.78,12,2,0,0.00
2013-6-23,78.0,67.1,61.1,59.0,56.8,55.0,83,70,52,29.86,29.77,11,2,0,0.00
2013-6-24,78.2,67.5,62.0,60.0,56.7,54.0,79,69,53,29.91,29.81,9,1,0,0.00
2013-6-25,79.1,70.3,61.8,63.0,59.7,57.0,84,70,54,29.97,29.87,12,2,0,0.00
2013-6-26,88.6,75.9,62.0,66.0,61.4,56.0,84,63,42,29.95,29.86,10,1,0,0.00
2013-6-27,94.8,77.5,64.2,67.0,63.1,59.0,85,64,39,29.99,29.93,11,2,0,0.00
2013-6-28,94.9,79.4,64.5,67.0,63.3,60.0,87,61,35,29.97,29.83,11,2,0,0.00
2013-6-29,96.7,81.2,66.4,68.0,63.9,60.0,80,58,36,29.86,29.70,7,1,0,0.00
2013-6-30,93.6,78.5,67.3,70.0,64.5,61.0,81,63,43,29.79,29.68,12,2,0,0.00
2013-7-1,94.9,78.5,67.3,68.0,64.1,61.0,83,64,35,29.86,29.77,9,1,0,0.00
2013-7-2,85.7,74.8,65.6,67.0,63.6,61.0,85,69,51,29.94,29.84,10,2,0,0.00
2013-7-3,88.0,74.6,65.8,67.0,63.2,61.0,86,69,47,29.91,29.77,11,1,0,0.00
2013-7-4,88.0,73.2,64.6,65.0,62.0,59.0,87,70,45,29.81,29.71,11,2,0,0.00
2013-7-5,82.3,72.1,64.6,64.0,61.6,59.0,83,71,53,29.82,29.73,10,2,0,0.00
2013-7-6,84.4,71.8,65.5,66.0,62.0,60.0,83,72,52,29.80,29.71,11,2,0,0.00
2013-7-7,87.4,75.1,66.0,67.0,62.9,61.0,83,67,48,29.83,29.73,9,2,0,0.00
2013-7-8,91.9,74.0,61.2,66.0,59.4,48.0,87,64,33,29.90,29.81,13,2,0,0.00
2013-7-9,87.2,75.7,63.2,67.0,60.2,52.0,76,59,45,29.95,29.86,10,2,0,0.00
2013-7-10,83.2,73.9,68.0,66.0,63.5,60.0,82,71,53,29.93,29.87,9,1,0,0.00
2013-7-11,80.6,72.6,67.6,66.0,64.3,62.0,84,75,55,29.94,29.86,7,1,0,0.00
2013-7-12,86.0,74.0,66.7,68.0,64.3,60.0,88,73,51,29.91,29.81,10,2,0,0.00
2013-7-13,86.9,73.9,64.6,65.0,61.8,60.0,86,68,44,29.93,29.82,12,2,0,0.00
2013-7-14,89.2,74.4,64.4,65.0,61.8,57.0,86,67,34,29.90,29.79,12,2,0,0.00
2013-7-15,88.7,75.0,64.3,65.0,60.8,52.0,86,64,37,29.84,29.76,12,2,0,0.00
2013-7-16,87.5,73.1,58.0,61.0,55.3,51.0,81,57,31,29.96,29.83,15,2,0,0.00
2013-7-17,90.6,74.7,56.8,59.0,52.9,44.0,83,51,25,29.98,29.91,11,2,0,0.00
2013-7-18,86.4,72.7,57.7,62.0,56.5,48.0,76,58,38,29.96,29.82,12,2,0,0.00
2013-7-19,84.9,71.0,62.1,65.0,60.6,56.0,86,71,50,29.88,29.79,11,2,0,0.00
2013-7-20,78.7,68.5,63.9,65.0,61.4,59.0,84,78,61,29.86,29.77,9,1,0,0.02
2013-7-21,72.8,68.1,64.6,64.0,61.6,60.0,85,80,73,29.90,29.77,5,1,0,0.00
2013-7-22,86.1,73.5,64.7,67.0,62.9,60.0,87,71,52,29.95,29.89,12,2,0,0.00
2013-7-23,85.0,73.7,64.8,66.0,61.9,56.0,85,68,50,30.00,29.89,16,2,0,0.00
2013-7-24,86.4,73.3,63.5,66.0,61.6,59.0,85,68,49,29.95,29.85,16,2,0,0.00
2013-7-25,84.5,71.8,63.2,64.0,59.7,-99.9,86,69,50,29.98,29.89,14,2,0,0.01
2013-7-26,85.1,72.8,64.8,66.0,62.5,60.0,85,71,50,30.05,29.93,8,1,0,0.01
2013-7-27,84.6,72.0,65.0,66.0,61.6,59.0,83,71,52,29.98,29.84,11,2,0,0.00
2013-7-28,81.0,68.9,62.6,64.0,60.2,57.0,87,75,54,29.91,29.83,9,2,0,0.00
2013-7-29,81.3,69.6,63.0,62.0,58.5,56.0,82,69,50,30.01,29.89,12,2,0,0.00
2013-7-30,82.0,69.0,59.8,62.0,57.9,55.0,85,69,50,30.09,29.99,11,2,0,0.00
2013-7-31,77.9,67.2,59.9,62.0,57.5,54.0,83,72,56,30.08,29.95,11,2,0,0.00
2013-8-1,80.0,67.4,59.7,60.0,57.3,54.0,82,72,49,30.00,29.87,9,1,0,0.00
2013-8-2,82.9,69.5,60.7,62.0,58.9,56.0,86,71,49,29.95,29.86,9,2,0,0.00
2013-8-3,82.0,69.3,62.5,63.0,59.4,57.0,84,72,51,29.97,29.89,11,2,0,0.00
2013-8-4,82.5,70.4,62.3,63.0,59.4,58.0,85,70,47,29.99,29.89,10,2,0,0.00
2013-8-5,84.4,68.9,58.6,62.0,58.0,54.0,88,70,42,29.98,29.89,13,2,0,0.00
2013-8-6,81.4,69.7,61.3,61.0,57.9,55.0,85,68,46,30.00,29.93,10,2,0,0.00
2013-8-7,82.1,68.9,60.2,60.0,57.5,55.0,86,69,45,30.05,29.94,10,2,0,0.00
2013-8-8,82.4,67.8,56.3,62.0,57.2,53.0,87,70,48,29.98,29.88,11,2,0,0.00
2013-8-9,80.7,67.4,59.0,61.0,57.4,55.0,88,72,49,29.95,29.88,11,2,0,0.00
2013-8-10,79.8,68.3,60.3,60.0,57.0,55.0,85,69,48,30.00,29.92,9,2,0,0.00
2013-8-11,83.9,69.1,58.2,60.0,57.0,54.0,87,68,42,29.97,29.86,9,1,0,0.00
2013-8-12,84.3,69.7,60.4,63.0,59.2,56.0,88,71,46,29.95,29.86,14,2,0,0.00
2013-8-13,86.7,71.6,62.4,64.0,60.5,58.0,86,70,45,29.95,29.83,12,2,0,0.00
2013-8-14,87.0,71.3,62.9,67.0,61.2,58.0,87,72,49,29.89,29.79,9,1,0,0.00
2013-8-15,89.4,72.7,61.0,66.0,61.0,57.0,88,69,44,29.92,29.84,12,1,0,0.00
2013-8-16,89.1,75.4,62.6,66.0,60.4,55.0,86,63,35,29.92,29.86,11,1,0,0.00
2013-8-17,90.2,75.3,62.3,65.0,59.9,55.0,78,61,37,29.92,29.77,11,2,0,0.00
2013-8-18,84.2,71.6,61.3,65.0,61.0,57.0,87,71,50,29.89,29.78,10,2,0,0.00
2013-8-19,85.2,72.1,64.6,65.0,61.4,59.0,85,70,46,29.91,29.82,10,2,0,0.00
2013-8-20,87.7,73.3,63.2,64.0,61.2,59.0,87,68,42,29.90,29.80,13,2,0,0.00
2013-8-21,93.1,75.7,60.5,64.0,57.3,51.0,80,56,33,29.89,29.79,11,1,0,0.00
2013-8-22,93.8,78.3,61.8,61.0,54.9,50.0,76,47,23,29.89,29.76,10,2,0,0.00
2013-8-23,91.5,75.9,60.7,62.0,56.5,52.0,75,53,30,29.84,29.70,16,2,0,0.00
2013-8-24,86.7,72.7,59.3,64.0,59.6,55.0,86,66,41,29.85,29.73,11,2,0,0.00
2013-8-25,89.3,73.9,59.8,64.0,58.2,53.0,86,61,35,29.89,29.81,11,1,0,0.00
2013-8-26,91.3,77.0,65.3,67.0,58.7,52.0,76,55,40,29.88,29.77,6,1,0,0.00
2013-8-27,91.1,80.1,69.5,65.0,59.2,53.0,71,50,38,29.80,29.72,10,1,0,0.00
2013-8-28,94.6,80.5,67.2,66.0,58.5,50.0,71,48,35,29.86,29.74,10,1,0,0.00
2013-8-29,99.6,83.5,69.5,68.0,58.3,48.0,57,43,32,29.90,29.82,7,1,0,0.00
2013-8-30,96.9,85.9,76.9,72.0,66.4,54.0,68,53,42,29.93,29.86,15,2,0,0.00
2013-8-31,92.4,83.1,75.1,73.0,69.1,65.0,76,63,51,29.92,29.82,13,2,0,0.00
2013-9-1,93.2,81.0,72.1,72.0,67.6,64.0,75,64,48,29.89,29.79,16,2,0,0.00
2013-9-2,92.2,79.7,68.9,70.0,67.2,64.0,86,67,47,29.88,29.76,11,1,0,0.00
2013-9-3,96.6,82.4,71.3,70.0,65.7,62.0,80,59,33,29.87,29.77,8,1,0,0.00
2013-9-4,99.2,84.3,70.1,68.0,63.0,58.0,76,51,32,29.87,29.79,9,1,0,0.00
2013-9-5,98.5,84.5,70.7,66.0,60.3,54.0,73,46,29,29.84,29.77,7,1,0,0.00
2013-9-6,99.5,83.9,70.1,66.0,58.4,53.0,68,44,28,29.83,29.74,7,1,0,0.00
2013-9-7,98.7,84.0,70.1,67.0,59.9,55.0,69,46,25,29.82,29.75,8,1,0,0.00
2013-9-8,90.6,76.4,63.8,65.0,60.5,57.0,83,60,36,29.81,29.71,9,1,0,0.00
2013-9-9,85.1,73.1,66.3,63.0,58.7,56.0,77,62,41,29.78,29.70,10,1,0,0.00
2013-9-10,82.2,69.5,62.0,62.0,58.9,57.0,85,70,48,29.92,29.78,14,2,0,0.00
2013-9-11,81.6,68.6,59.2,63.0,58.6,55.0,86,72,51,29.98,29.88,11,1,0,0.00
2013-9-12,88.7,72.5,58.4,64.0,58.9,55.0,88,65,38,29.92,29.78,9,1,0,0.00
2013-9-13,88.8,73.4,58.2,62.0,56.8,51.0,79,58,35,29.81,29.63,8,1,0,0.00
2013-9-14,90.3,75.4,61.2,65.0,60.5,55.0,83,62,41,29.69,29.59,10,1,0,0.00
2013-9-15,94.6,76.4,62.0,66.0,61.0,55.0,84,61,36,29.74,29.66,8,1,0,0.00
2013-9-16,93.6,76.5,61.6,65.0,59.6,54.0,81,59,35,29.78,29.69,12,1,0,0.00
2013-9-17,82.5,68.6,60.4,63.0,59.6,56.0,89,74,50,29.79,29.69,12,2,0,0.00
2013-9-18,79.2,68.1,61.1,61.0,58.0,56.0,86,72,51,29.79,29.71,8,1,0,0.00
2013-9-19,82.5,67.9,57.4,64.0,59.0,54.0,88,74,52,29.81,29.72,11,2,0,0.00
2013-9-20,74.2,67.0,64.3,63.0,60.2,59.0,83,79,67,29.86,29.79,11,1,0,0.00
2013-9-21,77.6,68.3,62.6,59.0,57.9,56.0,82,70,52,29.88,29.77,11,2,0,0.00
2013-9-22,78.7,66.9,56.0,58.0,54.2,49.0,86,66,44,29.82,29.75,9,1,0,0.00
2013-9-23,93.5,73.5,57.0,57.0,51.0,47.0,74,49,22,29.87,29.77,11,1,0,0.00
2013-9-24,87.4,73.0,60.4,54.0,49.4,45.0,68,46,27,29.89,29.80,12,1,0,0.00
2013-9-25,78.7,66.6,55.4,61.0,54.0,48.0,77,65,42,29.83,29.67,15,2,0,0.00
2013-9-26,75.4,66.0,58.3,55.0,51.0,45.0,78,60,38,29.86,29.69,13,2,0,0.00
2013-9-27,86.1,68.2,52.7,46.0,40.2,35.0,72,41,17,29.96,29.86,13,1,0,0.00
2013-9-28,90.8,70.7,54.2,44.0,38.8,35.0,50,34,15,30.01,29.92,9,1,0,0.00
2013-9-29,88.3,69.9,54.8,48.0,41.2,34.0,55,37,19,30.03,29.93,10,1,0,0.00
2013-9-30,85.3,68.7,52.1,57.0,46.3,40.0,67,47,26,29.97,29.83,10,1,0,0.00
2013-10-1,83.8,67.9,55.5,60.0,53.0,45.0,82,61,37,29.91,29.83,10,1,0,0.00
2013-10-2,77.7,66.5,60.2,60.0,56.7,54.0,82,72,50,29.95,29.84,8,1,0,0.00
2013-10-3,75.3,67.1,61.0,59.0,56.6,54.0,82,70,53,29.90,29.79,9,2,0,0.00
2013-10-4,86.8,72.5,56.4,57.0,37.2,25.0,88,39,11,30.03,29.86,16,4,0,0.00
2013-10-5,89.3,78.6,70.5,35.0,28.5,25.0,21,16,12,30.10,29.99,16,4,0,0.00
2013-10-6,92.7,76.0,58.2,39.0,31.5,25.0,36,21,10,30.05,29.91,9,1,0,0.00
2013-10-7,85.4,69.3,58.1,54.0,42.2,30.0,74,39,23,29.95,29.86,7,1,0,0.00
2013-10-8,73.9,62.4,51.4,57.0,51.5,44.0,82,68,54,29.90,29.79,9,2,0,0.00
2013-10-9,64.6,58.0,50.9,54.0,49.9,47.0,87,75,57,29.81,29.70,16,2,0,0.36
2013-10-10,69.5,56.9,46.9,50.0,47.1,44.0,89,72,43,30.00,29.78,5,1,0,0.00
2013-10-11,76.0,64.1,49.7,54.0,51.0,45.0,85,64,40,30.03,29.91,9,1,0,0.00
2013-10-12,75.6,61.7,48.9,57.0,51.6,45.0,88,71,46,29.95,29.86,7,1,0,0.00
2013-10-13,71.8,61.8,53.9,55.0,52.8,51.0,90,73,55,30.00,29.91,10,1,0,0.00
2013-10-14,85.6,68.2,51.9,54.0,44.8,35.0,88,52,19,30.00,29.86,13,1,0,0.00
2013-10-15,87.1,75.3,60.5,43.0,37.1,32.0,49,26,17,29.94,29.83,10,1,0,0.00
2013-10-16,85.9,72.8,60.4,40.0,33.4,30.0,43,25,14,30.03,29.93,12,1,0,0.00
2013-10-17,83.3,66.5,53.6,48.0,40.0,32.0,60,40,20,30.02,29.89,10,2,0,0.00
2013-10-18,85.6,66.7,52.6,55.0,46.6,41.0,68,51,24,29.99,29.89,9,1,0,0.00
2013-10-19,86.5,67.8,54.2,57.0,48.9,43.0,72,54,27,30.00,29.92,6,1,0,0.00
2013-10-20,79.2,62.1,49.0,58.0,50.6,43.0,84,68,40,29.96,29.86,12,1,0,0.00
2013-10-21,78.2,62.4,50.5,55.0,51.3,47.0,90,70,38,29.96,29.87,9,1,0,0.00
2013-10-22,77.0,61.4,50.6,59.0,53.7,47.0,90,77,51,29.98,29.86,6,1,0,0.00
2013-10-23,69.7,62.1,57.3,57.0,54.4,53.0,86,77,62,29.95,29.87,7,1,0,0.00
2013-10-24,69.6,62.1,58.4,55.0,53.7,53.0,82,74,58,30.03,29.93,5,0,0,0.00
2013-10-25,73.2,62.3,55.5,57.0,54.5,51.0,86,76,56,30.11,29.97,9,1,0,0.00
2013-10-26,76.5,63.0,50.9,60.0,54.6,48.0,90,75,55,30.07,29.94,6,1,0,0.00
2013-10-27,74.2,60.6,51.7,59.0,54.3,49.0,91,80,58,29.96,29.79,9,2,0,0.00
2013-10-28,63.9,59.2,54.8,54.0,50.8,47.0,84,74,58,29.92,29.79,14,3,0,0.02
2013-10-29,66.2,57.0,48.7,50.0,47.7,45.0,88,72,50,29.99,29.91,10,1,0,0.01
2013-10-30,71.9,58.6,47.9,49.0,46.8,44.0,90,68,39,30.05,29.95,5,0,0,0.00
2013-10-31,81.7,61.5,48.3,49.0,43.2,34.0,79,57,18,30.07,29.95,7,1,0,0.00
2013-11-1,87.2,66.3,50.0,46.0,39.9,36.0,72,43,17,30.08,29.90,9,1,0,0.00
2013-11-2,82.1,65.2,53.8,54.0,41.5,34.0,81,45,24,29.97,29.85,9,1,0,0.00
2013-11-3,70.9,59.4,49.2,55.0,51.1,46.0,88,75,54,29.91,29.80,8,1,0,0.00
2013-11-4,65.4,59.3,51.4,53.0,50.1,46.0,83,72,61,29.93,29.78,7,0,0,0.00
2013-11-5,75.5,63.5,47.6,46.0,30.1,16.0,87,35,16,30.12,29.93,13,1,0,0.00
2013-11-6,83.4,72.5,62.3,33.0,22.1,17.0,29,15,12,30.15,30.06,12,2,0,0.00
2013-11-7,84.4,72.9,58.5,39.0,31.0,21.0,42,23,14,30.08,29.96,9,1,0,0.00
2013-11-8,78.7,62.7,50.8,49.0,39.1,30.0,71,44,21,30.01,29.90,5,1,0,0.00
2013-11-9,77.9,59.9,45.8,48.0,41.2,38.0,76,54,25,30.06,29.97,7,1,0,0.00
2013-11-10,80.8,62.5,52.3,51.0,40.6,29.0,76,49,15,30.11,30.00,6,1,0,0.00
2013-11-11,78.2,61.5,49.3,52.0,45.5,40.0,75,58,32,30.12,29.99,5,1,0,0.00
2013-11-12,74.3,62.5,52.6,51.0,45.5,43.0,73,55,39,30.15,30.04,7,1,0,0.00
2013-11-13,92.6,73.5,56.5,49.0,40.3,30.0,57,35,15,30.04,29.85,7,1,0,0.00
2013-11-14,89.6,77.7,58.5,44.0,36.6,30.0,48,24,15,29.89,29.74,8,1,0,0.00
2013-11-15,68.2,60.5,53.3,55.0,50.8,38.0,84,71,47,29.73,29.65,7,0,0,0.00
2013-11-16,65.4,59.4,55.3,52.0,49.2,46.0,84,70,52,29.93,29.73,7,1,0,0.00
2013-11-17,68.8,59.8,51.8,52.0,49.1,46.0,83,69,48,30.07,29.92,6,0,0,0.00
2013-11-18,67.3,58.0,47.8,54.0,50.0,44.0,88,76,59,30.14,30.02,5,1,0,0.00
2013-11-19,65.0,59.0,55.1,53.0,51.4,50.0,85,77,65,30.07,29.93,6,0,0,0.00
2013-11-20,64.6,59.3,54.5,54.0,52.3,50.0,89,78,64,29.96,29.87,6,0,0,0.11
2013-11-21,62.5,58.1,53.2,58.0,54.1,50.0,91,87,77,29.87,29.81,9,1,0,0.51
2013-11-22,58.4,56.0,54.0,51.0,41.0,37.0,88,58,50,29.93,29.81,14,4,0,0.01
2013-11-23,65.5,57.3,48.4,42.0,39.3,37.0,71,52,42,30.07,29.93,14,2,0,0.00
2013-11-24,67.1,57.8,47.3,44.0,41.2,39.0,79,56,39,30.18,30.07,6,0,0,0.00
2013-11-25,72.7,57.0,45.1,48.0,42.5,40.0,81,62,32,30.21,30.12,6,0,0,0.00
2013-11-26,78.2,60.9,47.0,46.0,41.1,37.0,80,53,25,30.17,30.02,10,1,0,0.00
2013-11-27,75.5,61.6,50.7,44.0,40.3,37.0,65,47,27,30.02,29.85,7,0,0,0.00
2013-11-28,70.2,57.5,48.5,49.0,41.7,37.0,75,57,34,30.04,29.87,5,0,0,0.00
2013-11-29,64.3,56.5,52.6,53.0,47.3,44.0,86,72,56,30.17,30.03,6,0,0,0.18
2013-11-30,76.1,60.3,50.2,52.0,47.4,44.0,83,65,32,30.16,30.04,5,0,0,0.00
2013-12-1,80.6,64.6,54.1,45.0,37.9,33.0,69,40,18,30.20,30.06,7,1,0,0.00
2013-12-2,72.9,57.6,49.1,45.0,39.1,35.0,63,51,30,30.09,29.90,8,1,0,0.00
2013-12-3,66.1,55.8,45.2,52.0,45.5,36.0,80,69,57,29.89,29.73,11,2,0,0.00
2013-12-4,61.3,52.5,45.0,44.0,37.9,30.0,79,59,31,29.96,29.77,7,0,0,0.00
2013-12-5,59.7,49.6,38.9,39.0,36.4,33.0,79,62,42,30.10,29.94,6,0,0,0.00
2013-12-6,56.5,48.1,41.2,40.0,37.4,35.0,78,68,53,30.17,30.08,5,0,0,0.00
2013-12-7,53.1,46.9,41.5,49.0,40.4,35.0,88,78,66,30.11,29.98,7,1,0,0.21
2013-12-8,55.8,44.8,37.1,41.0,36.4,34.0,87,74,50,30.20,30.08,6,0,0,0.00
2013-12-9,59.0,50.8,38.7,33.0,10.9,5.0,79,22,13,30.27,30.17,20,5,0,0.00
2013-12-10,68.2,58.3,50.9,21.0,12.4,4.0,25,16,13,30.23,30.06,13,3,0,0.00
2013-12-11,71.9,61.1,43.1,25.0,20.7,15.0,41,22,16,30.14,30.07,15,1,0,0.00
2013-12-12,67.9,56.7,45.0,44.0,34.6,20.0,78,47,19,30.19,30.10,10,1,0,0.00
2013-12-13,65.4,50.8,40.3,43.0,37.6,34.0,79,63,36,30.21,30.10,6,1,0,0.00
2013-12-14,76.3,67.1,46.2,37.0,25.5,21.0,69,21,15,30.27,30.14,16,2,0,0.00
2013-12-15,81.3,72.4,63.6,34.0,26.9,21.0,21,18,15,30.20,30.03,12,2,0,0.00
2013-12-16,86.9,74.4,60.1,42.0,32.6,28.0,33,22,15,30.09,30.01,9,1,0,0.00
2013-12-17,82.7,67.0,57.1,46.0,39.4,33.0,47,37,19,30.08,29.97,7,0,0,0.00
2013-12-18,71.4,61.0,54.7,54.0,47.4,41.0,83,63,41,29.98,29.82,7,1,0,0.00
2013-12-19,56.7,51.8,45.2,48.0,45.3,41.0,85,78,66,29.84,29.69,4,0,0,0.47
2013-12-20,62.1,50.4,40.2,47.0,42.6,37.0,90,76,54,29.94,29.75,6,0,0,0.02
2013-12-21,60.4,50.1,42.3,48.0,42.3,38.0,88,75,58,30.07,29.92,6,0,0,0.00
2013-12-22,69.7,52.6,41.7,49.0,43.8,38.0,90,74,41,30.25,30.07,7,1,0,0.00
2013-12-23,75.9,61.5,45.1,44.0,38.9,34.0,81,49,26,30.30,30.15,12,1,0,0.00
2013-12-24,78.7,65.4,51.2,45.0,38.8,33.0,58,39,26,30.16,30.05,10,1,0,0.00
2013-12-25,78.8,71.8,67.3,34.0,26.5,18.0,27,19,14,30.16,30.06,22,5,0,0.00
2013-12-26,79.2,71.5,61.9,24.0,18.9,15.0,18,14,12,30.13,30.02,20,3,0,0.00
2013-12-27,82.9,62.2,46.6,38.0,27.2,18.0,40,28,12,30.12,30.01,7,1,0,0.00
2013-12-28,73.5,58.2,46.4,43.0,34.5,27.0,74,44,19,30.03,29.89,5,0,0,0.00
2013-12-29,75.1,63.1,42.9,38.0,22.9,11.0,76,28,11,30.11,29.98,18,2,0,0.00
2013-12-30,73.3,56.9,44.6,32.0,24.5,14.0,47,30,14,30.24,30.11,4,1,0,0.00
2013-12-31,70.6,53.9,42.0,44.0,32.1,25.0,66,45,26,30.19,30.06,6,1,0,0.00
2014-1-1,71.0,54.8,42.4,46.0,37.3,31.0,70,54,33,30.11,30.02,7,1,0,0.00
2014-1-2,79.6,61.8,48.8,47.0,37.3,29.0,63,42,20,30.07,29.96,5,0,0,0.00